[[{"header":{"parameterUnit":"m.s-1","parameterCategory":1,"la1":30.2991,"la2":30.254,"lo1":-89.0895,"lo2":-89.0444,"dy":0.0017,"dx":0.0017,"nx":28,"ny":28,"refTime":"2025-03-20T03:00:00:Z","depth":0,"parameterNumber":2,"parameterNumberName":"U-component_of_WINDS"},"data":[0,0,0,0,0,0,0,0,0,0,0,0,0,0,0,0,0,0,0,0,0,0,0,0,0,0,0,0,0,0,0,0,0,0,0,0,0,0,0,0,0,0,0,0,0,0,0,0,0,0,0,0,0,0,0,0,0,0,5.3792,5.3793,0,5.3907,5.3908,5.391,5.3894,5.3892,5.389,5.3888,5.4006,5.401,5.4015,0,0,0,0,0,0,0,0,0,0,0,0,0,5.356,5.3565,5.3792,5.3793,5.3795,5.3907,5.3908,5.391,5.3894,5.3892,5.3889,5.3887,5.4004,5.401,5.4016,0,0,0,0,0,0,0,0,0,0,0,0,0,5.3667,5.3566,5.3792,5.38,5.3802,5.3907,5.3909,5.391,5.3894,5.3891,5.3889,5.3886,5.4002,5.4009,5.4017,5.412,0,0,5.4039,5.4042,0,0,0,0,0,0,0,0,5.3661,5.3675,5.3798,5.38,5.3802,5.3883,5.387,5.3981,5.3895,5.3859,5.3888,5.3885,5.3967,5.3977,5.4005,5.4125,5.413,5.404,5.4044,5.4048,5.405,0,0,0,0,0,0,0,5.3653,5.367,5.3837,5.3799,5.3802,5.3799,5.3811,5.3891,5.3928,5.3862,5.3861,5.3875,5.3968,5.3998,5.4008,5.4132,5.404,5.4046,5.4051,5.4054,5.4346,5.4349,0,0,0,0,0,0,5.3643,5.3664,5.3834,5.3841,5.3723,5.3806,5.3819,5.386,5.3927,5.3935,5.3878,5.3874,5.3987,5.3999,5.4012,5.4139,5.4047,5.4054,5.4059,5.4343,5.4347,5.435,0,0,0,0,0,0,5.3639,5.3659,5.3829,5.3752,5.3774,5.3813,5.3859,5.3864,5.3894,5.3939,5.3945,5.3901,5.3985,5.4002,5.4094,5.4143,5.4058,5.4064,5.4339,5.4344,5.4349,5.4393,0,0,0,0,0,0,5.3632,5.3657,5.3696,5.3753,5.3778,5.3909,5.3862,5.3868,5.3907,5.3903,5.3963,5.397,5.3984,5.4083,5.4101,5.4151,5.407,5.4334,5.4341,5.4347,5.4387,5.4399,5.4409,0,0,0,0,0,5.3624,5.3703,5.3698,5.3718,5.3827,5.3911,5.3925,5.394,5.3911,5.3951,5.398,5.3968,5.4135,5.4092,5.4113,5.4166,5.4331,5.4339,5.4346,5.4382,5.4396,5.4408,0,0,0,0,0,0,5.3649,5.3711,5.3706,5.3806,5.3854,5.3908,5.3959,5.3954,5.4011,5.4005,5.4021,5.4035,5.4129,5.4157,5.4109,5.4271,5.4229,5.4241,5.4249,5.4263,5.4274,5.4265,5.4076,0,0,0,0,0,5.3667,5.373,5.378,5.3863,5.3888,5.392,5.3957,5.3964,5.4014,5.4034,5.407,5.4119,5.4183,5.4225,5.4286,5.4391,5.4405,5.4438,5.4449,5.4458,5.4468,5.4528,5.4544,5.4375,5.4375,5.4375,0,0,5.3703,5.3745,5.3783,5.387,5.3908,5.3973,5.3936,5.4007,5.4056,5.4045,5.4135,5.4163,5.4219,5.432,5.4366,5.4346,5.4518,5.4467,5.4474,5.4479,5.4538,5.4554,5.4568,5.438,5.4379,5.4378,0,0,5.3803,5.384,5.3915,5.3954,5.4013,5.4034,5.4052,5.4109,5.4127,5.4218,5.4212,5.4271,5.438,5.4421,5.4456,5.4576,5.4568,5.4595,5.4651,5.471,5.4723,5.4735,5.4779,5.4795,5.4605,5.4605,5.4605,0,5.3841,5.3939,5.3954,5.4026,5.4065,5.406,5.4137,5.4174,5.4249,5.4277,5.4254,5.4393,5.443,5.4541,5.457,5.4599,5.4621,5.4588,5.472,5.4732,5.4744,5.4786,5.4802,5.4608,5.4608,5.4608,5.4607,0,5.3984,5.4052,5.4106,5.418,5.4225,5.4299,5.4326,5.4371,5.4375,5.4399,5.4493,5.4538,5.461,5.4637,5.4641,5.4749,5.4735,5.4716,5.4674,5.4763,5.4803,5.4819,5.4613,5.4612,5.4611,5.461,0,0,5.4101,5.4184,5.4204,5.4239,5.4304,5.4358,5.4433,5.4503,5.4542,5.4595,5.4659,5.4753,5.4736,5.4776,5.4786,5.4838,5.4932,5.4812,5.4814,5.4834,5.5056,5.5071,5.5089,5.4927,5.493,5.4933,5.5052,0,5.4208,5.434,5.4357,5.4475,5.454,5.4537,5.4603,5.4651,5.4676,5.4735,5.4763,5.483,5.4802,5.4827,5.4878,5.4909,5.4977,5.4901,5.4988,5.4991,5.4974,5.511,5.5125,5.5235,5.5068,5.507,5.5072,0,5.435,5.4408,5.4533,5.4592,5.462,5.4678,5.4746,5.4802,5.4857,5.4872,5.4919,5.4923,5.5002,5.4957,5.5068,5.5016,5.5053,5.5074,5.5079,5.5088,5.5037,5.5123,5.527,5.5287,5.5097,5.5095,5.5093,0,5.4425,5.4534,5.4624,5.4653,5.4724,5.4766,5.4798,5.485,5.4892,5.4952,5.4979,5.5047,5.5084,5.5137,5.516,5.5125,5.527,5.5226,5.5285,5.5285,5.5315,5.5313,5.5471,5.5339,5.5338,5.5338,5.5338,0,5.4543,5.4619,5.4659,5.4713,5.48,5.482,5.4905,5.4935,5.4983,5.5045,5.5046,5.5104,5.5131,5.5193,5.5212,5.5302,5.5318,5.5333,5.5337,5.5333,5.5332,5.5358,5.5351,5.5342,5.5341,5.534,5.534,0,5.4641,5.467,5.4767,5.4827,5.4845,5.4906,5.4958,5.5012,5.5037,5.5116,5.5135,5.5176,5.525,5.5278,5.5368,5.5381,5.5485,5.5483,5.5467,5.5468,5.5526,5.552,5.5706,5.5732,5.5582,5.5583,5.5584,0,5.4714,5.4773,5.4841,5.4882,5.4916,5.4982,5.5026,5.5049,5.5094,5.5164,5.521,5.5284,5.5345,5.5464,5.5502,5.5571,5.5571,5.5632,5.5581,5.5577,5.5574,5.557,5.5577,5.5641,5.5642,5.5643,5.5644,0,5.4842,5.4854,5.4917,5.4986,5.5038,5.5093,5.5147,5.5181,5.5213,5.5264,5.534,5.5387,5.5481,5.5555,5.5627,5.5661,5.5659,5.566,5.5678,5.5674,5.5663,5.5672,5.5493,5.5656,5.5655,5.5654,5.5653,5.5653,5.4931,5.4984,5.5041,5.5111,5.5155,5.5205,5.526,5.5293,5.5357,5.5435,5.5445,5.5527,5.5584,5.5681,5.5718,5.5784,5.5768,5.5793,5.5799,5.5805,5.581,5.5653,5.5797,5.5797,5.5797,5.5796,5.5796,0,5.506,5.5097,5.5162,5.5238,5.5294,5.5288,5.5348,5.5395,5.5468,5.5521,5.5581,5.567,5.5743,5.5788,5.5861,5.5905,5.5907,5.5924,5.5921,5.5929,5.582,5.5798,5.5922,5.5922,5.5922,5.5922,5.5922,5.5922,5.5134,5.5225,5.5244,5.5357,5.5394,5.5474,5.551,5.5557,5.56,5.5699,5.576,5.5789,5.584,5.5918,5.5985,5.5996,5.6024,5.6043,5.6053,5.595,5.5937,5.5924,5.5904,5.6048,5.6049,5.6158,5.6159,5.6159]},{"header":{"parameterUnit":"m.s-1","parameterCategory":1,"la1":30.2991,"la2":30.254,"lo1":-89.0895,"lo2":-89.0444,"dy":0.0017,"dx":0.0017,"nx":28,"ny":28,"refTime":"2025-03-20T03:00:00:Z","depth":0,"parameterNumber":3,"parameterNumberName":"V-component_of_WINDS"},"data":[0,0,0,0,0,0,0,0,0,0,0,0,0,0,0,0,0,0,0,0,0,0,0,0,0,0,0,0,0,0,0,0,0,0,0,0,0,0,0,0,0,0,0,0,0,0,0,0,0,0,0,0,0,0,0,0,0,0,-6.4916,-6.4917,0,-6.5,-6.5001,-6.5002,-6.4986,-6.4985,-6.4983,-6.4982,-6.5062,-6.5066,-6.5069,0,0,0,0,0,0,0,0,0,0,0,0,0,-6.4741,-6.4744,-6.4916,-6.4917,-6.4918,-6.5,-6.5001,-6.5002,-6.4986,-6.4985,-6.4983,-6.4981,-6.5061,-6.5065,-6.507,0,0,0,0,0,0,0,0,0,0,0,0,0,-6.482,-6.4745,-6.4916,-6.4921,-6.4922,-6.5,-6.5001,-6.5002,-6.4987,-6.4984,-6.4982,-6.498,-6.506,-6.5065,-6.507,-6.5147,0,0,-6.5086,-6.5089,0,0,0,0,0,0,0,0,-6.4815,-6.4826,-6.4919,-6.492,-6.4922,-6.498,-6.4969,-6.5051,-6.4987,-6.4962,-6.4982,-6.4979,-6.5037,-6.5044,-6.5064,-6.5151,-6.5155,-6.5087,-6.509,-6.5092,-6.5094,0,0,0,0,0,0,0,-6.481,-6.4822,-6.4949,-6.492,-6.4922,-6.4917,-6.4926,-6.4984,-6.501,-6.4964,-6.4963,-6.4973,-6.5037,-6.5059,-6.5066,-6.5156,-6.5087,-6.5091,-6.5095,-6.5097,-6.5313,-6.5315,0,0,0,0,0,0,-6.4803,-6.4818,-6.4947,-6.4952,-6.4862,-6.4922,-6.4932,-6.4964,-6.501,-6.5015,-6.4975,-6.4972,-6.5051,-6.506,-6.5069,-6.5163,-6.5092,-6.5097,-6.51,-6.531,-6.5313,-6.5316,0,0,0,0,0,0,-6.48,-6.4815,-6.4943,-6.4885,-6.4901,-6.4928,-6.4963,-6.4967,-6.4989,-6.5019,-6.5023,-6.4993,-6.505,-6.5061,-6.5129,-6.5166,-6.51,-6.5104,-6.5307,-6.5311,-6.5315,-6.5353,0,0,0,0,0,0,-6.4795,-6.4814,-6.4844,-6.4886,-6.4904,-6.5003,-6.4966,-6.497,-6.4998,-6.4995,-6.5036,-6.5041,-6.5049,-6.5121,-6.5134,-6.5172,-6.5109,-6.5304,-6.5309,-6.5313,-6.5348,-6.5357,-6.5365,0,0,0,0,0,-6.4788,-6.4849,-6.4845,-6.4861,-6.4942,-6.5005,-6.5015,-6.5025,-6.5001,-6.5032,-6.5051,-6.504,-6.516,-6.5128,-6.5143,-6.5183,-6.5302,-6.5308,-6.5313,-6.5344,-6.5355,-6.5365,0,0,0,0,0,0,-6.4809,-6.4855,-6.4851,-6.4927,-6.4963,-6.5002,-6.504,-6.5036,-6.5077,-6.5072,-6.508,-6.509,-6.5159,-6.5177,-6.5141,-6.5261,-6.5227,-6.5236,-6.5246,-6.5257,-6.5265,-6.5259,-6.5113,0,0,0,0,0,-6.4823,-6.4871,-6.4908,-6.4972,-6.499,-6.5013,-6.504,-6.5045,-6.5081,-6.5095,-6.5119,-6.5154,-6.52,-6.5229,-6.5273,-6.5351,-6.536,-6.5386,-6.5395,-6.5401,-6.5409,-6.5453,-6.5465,-6.5335,-6.5335,-6.5335,0,0,-6.4851,-6.4882,-6.4911,-6.4977,-6.5005,-6.5054,-6.5025,-6.5078,-6.5114,-6.5102,-6.5169,-6.5188,-6.5227,-6.5301,-6.5335,-6.5319,-6.5447,-6.5409,-6.5414,-6.5418,-6.546,-6.5473,-6.5484,-6.5339,-6.5338,-6.5338,0,0,-6.4927,-6.4956,-6.5013,-6.5043,-6.5086,-6.5101,-6.5115,-6.5157,-6.517,-6.5237,-6.523,-6.5273,-6.5351,-6.538,-6.5405,-6.5496,-6.5487,-6.551,-6.5554,-6.5597,-6.5607,-6.5616,-6.565,-6.5661,-6.5517,-6.5517,-6.5517,0,-6.4956,-6.5031,-6.5043,-6.5098,-6.5127,-6.5122,-6.518,-6.5207,-6.5262,-6.5282,-6.5264,-6.5364,-6.539,-6.5471,-6.5494,-6.5514,-6.553,-6.5505,-6.5605,-6.5614,-6.5623,-6.5655,-6.5667,-6.552,-6.552,-6.5519,-6.5519,0,-6.5065,-6.5118,-6.5159,-6.5215,-6.5249,-6.5305,-6.5325,-6.5358,-6.536,-6.5377,-6.5446,-6.5477,-6.5528,-6.5548,-6.5549,-6.563,-6.5619,-6.5603,-6.5569,-6.5638,-6.5668,-6.568,-6.5524,-6.5523,-6.5522,-6.5521,0,0,-6.5155,-6.5219,-6.5234,-6.526,-6.531,-6.535,-6.5406,-6.5458,-6.5487,-6.5526,-6.5573,-6.5641,-6.5628,-6.5656,-6.5661,-6.5699,-6.5771,-6.5678,-6.5679,-6.5695,-6.5863,-6.5875,-6.5888,-6.5766,-6.5768,-6.577,-6.586,0,-6.5236,-6.5338,-6.5351,-6.544,-6.549,-6.5487,-6.5536,-6.5571,-6.5589,-6.5633,-6.5652,-6.57,-6.5678,-6.5696,-6.5733,-6.5754,-6.5804,-6.5748,-6.5809,-6.5811,-6.5799,-6.5904,-6.5916,-6.5999,-6.5871,-6.5873,-6.5875,0,-6.5344,-6.5389,-6.5485,-6.553,-6.5551,-6.5595,-6.5645,-6.5687,-6.5727,-6.5737,-6.5771,-6.5772,-6.583,-6.5795,-6.5876,-6.5837,-6.5863,-6.5878,-6.5881,-6.5886,-6.5847,-6.5912,-6.6026,-6.6038,-6.5893,-6.5892,-6.589,0,-6.5401,-6.5485,-6.5553,-6.5576,-6.563,-6.5661,-6.5685,-6.5723,-6.5755,-6.5798,-6.5818,-6.5867,-6.5894,-6.5931,-6.5946,-6.5919,-6.6026,-6.5991,-6.6036,-6.6035,-6.6057,-6.6056,-6.6176,-6.6075,-6.6074,-6.6074,-6.6074,0,-6.5491,-6.5549,-6.558,-6.5622,-6.5688,-6.5703,-6.5767,-6.5789,-6.5824,-6.587,-6.587,-6.5912,-6.5929,-6.5974,-6.5986,-6.6051,-6.6063,-6.6073,-6.6075,-6.6073,-6.6071,-6.6089,-6.6084,-6.6077,-6.6077,-6.6076,-6.6075,0,-6.5564,-6.5588,-6.5662,-6.5708,-6.5721,-6.5768,-6.5807,-6.5848,-6.5866,-6.5924,-6.5939,-6.5968,-6.6021,-6.604,-6.6104,-6.6112,-6.6188,-6.6185,-6.6175,-6.6176,-6.6219,-6.6215,-6.6355,-6.6375,-6.626,-6.6261,-6.6262,0,-6.562,-6.5665,-6.5718,-6.575,-6.5775,-6.5826,-6.5859,-6.5876,-6.591,-6.5961,-6.5996,-6.605,-6.6094,-6.618,-6.6206,-6.6256,-6.6254,-6.63,-6.6261,-6.6258,-6.6255,-6.6252,-6.6257,-6.6307,-6.6308,-6.6309,-6.631,0,-6.5716,-6.5727,-6.5775,-6.5828,-6.5868,-6.591,-6.5951,-6.5976,-6.5999,-6.6038,-6.6094,-6.6129,-6.6196,-6.625,-6.6302,-6.6325,-6.6321,-6.6322,-6.6335,-6.6333,-6.6325,-6.6331,-6.6195,-6.6318,-6.6318,-6.6317,-6.6316,-6.6316,-6.5783,-6.5824,-6.5868,-6.5923,-6.5956,-6.5995,-6.6036,-6.6061,-6.6109,-6.6167,-6.6174,-6.6235,-6.6275,-6.6345,-6.6371,-6.6418,-6.6405,-6.6424,-6.6428,-6.6433,-6.6437,-6.6319,-6.6428,-6.6427,-6.6427,-6.6427,-6.6427,0,-6.588,-6.5909,-6.5959,-6.6018,-6.6061,-6.6056,-6.6102,-6.6138,-6.6192,-6.6232,-6.6276,-6.6342,-6.6395,-6.6426,-6.6479,-6.6511,-6.6511,-6.6524,-6.6522,-6.6528,-6.6445,-6.6428,-6.6524,-6.6524,-6.6524,-6.6524,-6.6524,-6.6524,-6.5935,-6.6005,-6.6021,-6.6108,-6.6136,-6.6197,-6.6224,-6.626,-6.6292,-6.6366,-6.6411,-6.6432,-6.6468,-6.6524,-6.6573,-6.6581,-6.66,-6.6615,-6.6622,-6.6543,-6.6533,-6.6524,-6.6509,-6.6619,-6.6619,-6.6701,-6.6701,-6.6702]}]]